Radiation Dose at Monitoring Post of Fukushima Daini Nuclear Power Station
Date,Time,MP-1(microSv/h),MP-2(microSv/h),MP-3(microSv/h),MP-4(microSv/h),MP-5(microSv/h),MP-6(microSv/h),MP-7(microSv/h),Wind Direction,Wind Velocity(m/s),Rain
2019/10/26,00:00,0.177,0.163,0.262,0.247,0.258,0.139,0.092,northwest,9.5,Yes
2019/10/26,00:10,0.175,0.163,0.261,0.248,0.259,0.138,0.092,north-northwest,10.3,Yes
2019/10/26,00:20,0.176,0.163,0.264,0.247,0.260,0.139,0.093,north-northwest,9.5,Yes
2019/10/26,00:30,0.177,0.164,0.263,0.249,0.261,0.139,0.093,north-northwest,9.0,Yes
2019/10/26,00:40,0.178,0.165,0.264,0.249,0.260,0.140,0.093,north-northwest,9.6,Yes
2019/10/26,00:50,0.178,0.166,0.263,0.249,0.262,0.141,0.093,north-northwest,10.6,Yes
2019/10/26,01:00,0.179,0.165,0.265,0.249,0.261,0.141,0.095,north-northwest,11.4,Yes
2019/10/26,01:10,0.179,0.164,0.266,0.250,0.261,0.140,0.094,north-northwest,10.4,Yes
2019/10/26,01:20,0.178,0.165,0.264,0.250,0.262,0.141,0.093,north-northwest,11.8,Yes
2019/10/26,01:30,0.178,0.164,0.264,0.249,0.261,0.139,0.092,north-northwest,10.6,Yes
2019/10/26,01:40,0.178,0.163,0.265,0.249,0.261,0.138,0.092,north-northwest,10.9,Yes
2019/10/26,01:50,0.178,0.164,0.264,0.247,0.259,0.137,0.090,north-northwest,10.4,Yes
2019/10/26,02:00,0.178,0.162,0.262,0.249,0.259,0.136,0.090,northwest,13.4,Yes
2019/10/26,02:10,0.178,0.161,0.263,0.247,0.257,0.135,0.089,north-northwest,12.9,Yes
2019/10/26,02:20,0.177,0.160,0.262,0.248,0.258,0.134,0.088,north-northwest,12.5,Yes
2019/10/26,02:30,0.176,0.159,0.263,0.246,0.255,0.134,0.088,north-northwest,13.1,Yes
2019/10/26,02:40,0.177,0.160,0.263,0.248,0.257,0.133,0.086,north-northwest,12.0,Yes
2019/10/26,02:50,0.174,0.159,0.261,0.247,0.256,0.133,0.087,northwest,12.3,Yes
2019/10/26,03:00,0.175,0.158,0.262,0.247,0.255,0.132,0.085,northwest,13.4,No
2019/10/26,03:10,0.175,0.157,0.261,0.246,0.255,0.132,0.085,northwest,11.7,No
2019/10/26,03:20,0.175,0.157,0.263,0.246,0.253,0.131,0.084,northwest,10.9,No
2019/10/26,03:30,0.175,0.157,0.261,0.246,0.254,0.132,0.084,northwest,11.8,No
2019/10/26,03:40,0.174,0.156,0.263,0.246,0.253,0.131,0.084,northwest,11.7,No
2019/10/26,03:50,0.176,0.156,0.260,0.247,0.256,0.130,0.084,northwest,12.9,No
2019/10/26,04:00,0.175,0.157,0.263,0.246,0.253,0.130,0.083,northwest,12.0,Yes
2019/10/26,04:10,0.175,0.157,0.262,0.247,0.257,0.131,0.084,northwest,11.1,No
2019/10/26,04:20,0.175,0.157,0.263,0.248,0.255,0.132,0.083,northwest,10.3,No
2019/10/26,04:30,0.177,0.158,0.263,0.246,0.256,0.131,0.085,north-northwest,10.9,No
2019/10/26,04:40,0.176,0.158,0.262,0.247,0.254,0.131,0.084,northwest,10.4,No
2019/10/26,04:50,0.176,0.157,0.264,0.248,0.256,0.131,0.084,northwest,12.8,No
2019/10/26,05:00,0.177,0.157,0.264,0.247,0.255,0.132,0.084,north-northwest,13.1,No
2019/10/26,05:10,0.177,0.157,0.264,0.247,0.254,0.131,0.084,north-northwest,11.7,No
2019/10/26,05:20,0.177,0.156,0.265,0.247,0.256,0.133,0.084,northwest,12.2,No
2019/10/26,05:30,0.176,0.156,0.264,0.247,0.256,0.132,0.083,north-northwest,12.8,No
2019/10/26,05:40,0.177,0.156,0.264,0.250,0.256,0.133,0.083,northwest,12.6,No
2019/10/26,05:50,0.176,0.157,0.264,0.247,0.254,0.132,0.083,northwest,10.4,No
2019/10/26,06:00,0.177,0.158,0.265,0.248,0.257,0.133,0.084,north-northwest,12.6,No
2019/10/26,06:10,0.177,0.158,0.264,0.247,0.254,0.132,0.083,northwest,13.3,No
2019/10/26,06:20,0.177,0.157,0.265,0.246,0.257,0.133,0.084,northwest,12.3,No
2019/10/26,06:30,0.177,0.156,0.264,0.248,0.253,0.133,0.084,northwest,10.4,No
2019/10/26,06:40,0.177,0.157,0.265,0.246,0.257,0.133,0.084,northwest,11.2,No
2019/10/26,06:50,0.178,0.157,0.264,0.249,0.254,0.132,0.084,northwest,9.8,No
2019/10/26,07:00,0.178,0.157,0.266,0.248,0.257,0.133,0.083,northwest,9.5,No
2019/10/26,07:10,0.179,0.157,0.264,0.249,0.255,0.132,0.083,northwest,8.7,No
2019/10/26,07:20,0.176,0.157,0.266,0.247,0.257,0.133,0.083,northwest,10.0,No
2019/10/26,07:30,0.176,0.157,0.264,0.249,0.254,0.134,0.083,northwest,10.1,No
2019/10/26,07:40,0.177,0.158,0.267,0.247,0.257,0.134,0.084,northwest,6.3,No
2019/10/26,07:50,0.179,0.158,0.264,0.249,0.254,0.132,0.083,northwest,7.5,No
2019/10/26,08:00,0.178,0.157,0.267,0.248,0.256,0.133,0.084,west-northwest,5.9,No
2019/10/26,08:10,0.178,0.158,0.265,0.248,0.255,0.133,0.083,west-northwest,7.0,No
2019/10/26,08:20,0.178,0.157,0.266,0.249,0.256,0.134,0.083,west-northwest,7.1,No
2019/10/26,08:30,0.178,0.158,0.264,0.246,0.255,0.133,0.083,west-northwest,7.9,No
2019/10/26,08:40,0.178,0.157,0.266,0.249,0.254,0.133,0.083,northwest,6.7,No
2019/10/26,08:50,0.177,0.157,0.264,0.247,0.256,0.134,0.083,northwest,7.6,No
2019/10/26,09:00,0.179,0.157,0.267,0.249,0.254,0.132,0.083,northwest,7.7,No
2019/10/26,09:10,0.177,0.156,0.263,0.248,0.258,0.134,0.083,northwest,6.7,No
2019/10/26,09:20,0.179,0.157,0.266,0.247,0.255,0.133,0.083,northwest,7.4,No
2019/10/26,09:30,0.177,0.157,0.265,0.250,0.254,0.134,0.083,northwest,7.9,No
2019/10/26,09:40,0.178,0.158,0.266,0.249,0.257,0.134,0.083,northwest,8.2,No
2019/10/26,09:50,0.178,0.157,0.266,0.248,0.255,0.133,0.082,west-northwest,8.2,No
2019/10/26,10:00,0.177,0.157,0.266,0.250,0.255,0.134,0.083,northwest,6.8,No
2019/10/26,10:10,0.178,0.158,0.265,0.248,0.257,0.134,0.083,northwest,6.3,No
2019/10/26,10:20,0.180,0.159,0.265,0.246,0.255,0.133,0.084,northwest,7.3,No
2019/10/26,10:30,0.177,0.156,0.268,0.246,0.253,0.134,0.083,northwest,6.6,No
2019/10/26,10:40,0.175,0.156,0.265,0.247,0.252,0.134,0.083,northwest,5.0,No
2019/10/26,10:50,0.176,0.158,0.266,0.251,0.255,0.134,0.082,west-northwest,4.9,No
2019/10/26,11:00,0.178,0.158,0.266,0.249,0.257,0.134,0.082,west-northwest,5.9,No
2019/10/26,11:10,0.179,0.157,0.264,0.250,0.256,0.133,0.083,west-northwest,8.4,No
2019/10/26,11:20,0.178,0.158,0.267,0.249,0.255,0.135,0.083,west-northwest,6.2,No
2019/10/26,11:30,0.177,0.156,0.266,0.248,0.254,0.135,0.083,west-northwest,3.9,No
2019/10/26,11:40,0.177,0.157,0.268,0.249,0.255,0.135,0.084,west-northwest,4.6,No
2019/10/26,11:50,0.177,0.157,0.267,0.249,0.253,0.135,0.085,west-northwest,5.6,No
2019/10/26,12:00,0.176,0.159,0.266,0.248,0.252,0.135,0.083,west-northwest,7.0,No
2019/10/26,12:10,0.178,0.158,0.267,0.248,0.253,0.135,0.083,west-northwest,7.0,No
2019/10/26,12:20,0.179,0.158,0.267,0.249,0.255,0.135,0.084,west-northwest,7.1,No
2019/10/26,12:30,0.178,0.158,0.265,0.249,0.255,0.134,0.083,northwest,4.2,No
2019/10/26,12:40,0.179,0.157,0.267,0.249,0.253,0.136,0.083,northwest,4.2,No
2019/10/26,12:50,0.177,0.156,0.269,0.249,0.254,0.135,0.083,north-northwest,3.0,No
2019/10/26,13:00,0.177,0.158,0.265,0.249,0.256,0.135,0.083,north-northwest,2.1,No
2019/10/26,13:10,0.176,0.160,0.264,0.249,0.255,0.135,0.083,northwest,2.4,No
2019/10/26,13:20,0.177,0.158,0.264,0.249,0.256,0.135,0.084,north-northwest,3.4,No
2019/10/26,13:30,0.179,0.158,0.267,0.249,0.256,0.136,0.085,north-northwest,2.4,No
2019/10/26,13:40,0.180,0.158,0.267,0.249,0.258,0.136,0.084,west-northwest,1.5,No
2019/10/26,13:50,0.180,0.158,0.265,0.251,0.259,0.135,0.084,northwest,1.2,No
2019/10/26,14:00,0.177,0.159,0.268,0.254,0.257,0.135,0.084,northeast,2.0,No
2019/10/26,14:10,0.178,0.158,0.267,0.251,0.255,0.136,0.084,northeast,2.8,No
2019/10/26,14:20,0.179,0.156,0.266,0.249,0.255,0.135,0.083,north-northeast,1.7,No
2019/10/26,14:30,0.178,0.157,0.266,0.251,0.259,0.136,0.084,north-northeast,0.7,No
2019/10/26,14:40,0.177,0.159,0.268,0.251,0.260,0.135,0.084,-,CALM,No
2019/10/26,14:50,0.179,0.157,0.266,0.249,0.256,0.135,0.084,-,CALM,No
2019/10/26,15:00,0.180,0.158,0.269,0.251,0.257,0.135,0.084,west,1.6,No
2019/10/26,15:10,0.178,0.160,0.267,0.252,0.259,0.134,0.085,west-northwest,3.4,No
2019/10/26,15:20,0.178,0.158,0.267,0.249,0.257,0.135,0.083,west,5.5,No
2019/10/26,15:30,0.179,0.160,0.268,0.251,0.257,0.135,0.083,west,5.4,No
2019/10/26,15:40,0.178,0.159,0.265,0.252,0.259,0.134,0.084,west,4.1,No
2019/10/26,15:50,0.179,0.158,0.268,0.249,0.256,0.136,0.083,west-northwest,4.0,No
2019/10/26,16:00,0.178,0.159,0.266,0.251,0.257,0.135,0.084,west-northwest,5.8,No
2019/10/26,16:10,0.178,0.157,0.268,0.250,0.259,0.134,0.083,west-northwest,4.3,No
2019/10/26,16:20,0.180,0.159,0.268,0.250,0.255,0.135,0.083,north-northwest,4.0,No
2019/10/26,16:30,0.178,0.158,0.267,0.252,0.260,0.134,0.084,north-northwest,2.7,No
2019/10/26,16:40,0.180,0.159,0.269,0.250,0.256,0.136,0.083,north-northwest,3.8,No
2019/10/26,16:50,0.179,0.158,0.266,0.253,0.257,0.135,0.084,northwest,3.2,No
2019/10/26,17:00,0.178,0.159,0.269,0.252,0.258,0.136,0.084,northwest,2.9,No
2019/10/26,17:10,0.180,0.158,0.266,0.252,0.256,0.136,0.084,north-northwest,2.8,No
2019/10/26,17:20,0.179,0.159,0.269,0.252,0.259,0.135,0.084,north-northwest,2.5,No
2019/10/26,17:30,0.179,0.158,0.266,0.250,0.255,0.136,0.083,north-northwest,1.2,No
2019/10/26,17:40,0.179,0.159,0.268,0.252,0.259,0.136,0.084,north,1.3,No
2019/10/26,17:50,0.179,0.160,0.266,0.251,0.256,0.136,0.084,north,0.7,No
2019/10/26,18:00,0.180,0.158,0.269,0.252,0.259,0.136,0.084,west,1.3,No
2019/10/26,18:10,0.179,0.159,0.267,0.252,0.256,0.136,0.083,west,1.0,No
2019/10/26,18:20,0.179,0.158,0.268,0.252,0.258,0.135,0.084,southwest,1.6,No
2019/10/26,18:30,0.179,0.160,0.269,0.251,0.258,0.136,0.083,south-southwest,1.7,No
2019/10/26,18:40,0.179,0.159,0.268,0.253,0.257,0.136,0.085,south,2.0,No
2019/10/26,18:50,0.177,0.158,0.269,0.250,0.259,0.136,0.084,south-southeast,2.9,No
2019/10/26,19:00,0.181,0.159,0.268,0.252,0.258,0.135,0.084,southeast,2.4,No
2019/10/26,19:10,0.178,0.159,0.268,0.252,0.259,0.137,0.083,southeast,2.4,No
2019/10/26,19:20,0.180,0.159,0.268,0.253,0.256,0.136,0.085,south-southeast,2.4,No
2019/10/26,19:30,0.179,0.157,0.268,0.250,0.259,0.136,0.084,south-southeast,0.6,No
2019/10/26,19:40,0.180,0.159,0.269,0.252,0.256,0.136,0.084,west-northwest,1.0,No
2019/10/26,19:50,0.178,0.159,0.267,0.252,0.259,0.136,0.084,-,CALM,No
2019/10/26,20:00,0.181,0.159,0.268,0.252,0.257,0.135,0.085,north-northwest,1.6,No
2019/10/26,20:10,0.179,0.159,0.269,0.252,0.259,0.136,0.085,north,1.8,No
2019/10/26,20:20,0.180,0.159,0.270,0.252,0.256,0.135,0.085,north-northwest,0.9,No
2019/10/26,20:30,0.180,0.158,0.268,0.252,0.258,0.136,0.084,north-northeast,1.1,No
2019/10/26,20:40,0.179,0.159,0.269,0.252,0.257,0.136,0.085,northwest,1.2,No
2019/10/26,20:50,0.179,0.158,0.269,0.251,0.260,0.136,0.084,northwest,2.8,No
2019/10/26,21:00,0.180,0.159,0.268,0.252,0.257,0.135,0.084,west-northwest,4.5,No
2019/10/26,21:10,0.180,0.159,0.267,0.250,0.258,0.136,0.083,west-northwest,3.5,No
2019/10/26,21:20,0.179,0.159,0.270,0.253,0.257,0.136,0.083,west-southwest,1.8,No
2019/10/26,21:30,0.179,0.159,0.268,0.251,0.257,0.136,0.084,west,2.6,No
2019/10/26,21:40,0.179,0.158,0.269,0.252,0.257,0.136,0.085,west-southwest,1.8,No
2019/10/26,21:50,0.180,0.159,0.268,0.252,0.257,0.137,0.084,southwest,1.6,No
2019/10/26,22:00,0.178,0.158,0.270,0.253,0.258,0.136,0.084,east-northeast,0.6,No
2019/10/26,22:10,0.181,0.158,0.267,0.251,0.256,0.136,0.084,south-southwest,0.8,No
2019/10/26,22:20,0.179,0.160,0.269,0.252,0.259,0.135,0.084,west-southwest,3.3,No
2019/10/26,22:30,0.179,0.158,0.266,0.252,0.256,0.136,0.084,west,3.4,No
2019/10/26,22:40,0.179,0.158,0.269,0.252,0.259,0.135,0.084,northwest,2.4,No
2019/10/26,22:50,0.181,0.160,0.267,0.252,0.257,0.136,0.084,northwest,3.8,No
2019/10/26,23:00,0.179,0.159,0.270,0.251,0.259,0.135,0.084,west,3.8,No
2019/10/26,23:10,0.181,0.160,0.269,0.252,0.256,0.136,0.084,west-southwest,1.6,No
2019/10/26,23:20,0.179,0.159,0.268,0.251,0.259,0.135,0.084,west-southwest,1.6,No
2019/10/26,23:30,0.181,0.160,0.268,0.251,0.256,0.136,0.084,west,3.7,No
2019/10/26,23:40,0.178,0.159,0.271,0.252,0.260,0.136,0.084,west,2.4,No
2019/10/26,23:50,0.181,0.159,0.267,0.251,0.257,0.136,0.084,west-northwest,1.5,No
